Location: *
(43.2048°N, 0.1612°E)
Time: 22:04:15
(UTC+00:00)

COBE Rocket - Pass Details

Date: 30 September 2023
Orbit: 678 x 778 km, 97.1° (Epoch: 05 December)

Event Time Altitude Azimuth Distance (km) Brightness Sun altitude
Rises 04:15:59 0° 8° (N) 3,098 7.4 -18.7°
Reaches altitude 10° 04:18:14 10° 5° (N) 2,189 6.6 -18.3°
Maximum altitude 04:22:59 64° 285° (WNW) 802 3.8 -17.5°
Enters shadow 04:27:22 13° 206° (SSW) 2,045 5.9 -16.7°
